This is the latest recevied weather packets stored in our database for station/object KE0PRS. If no packets are shown the sender has not sent any weather packets the latest 10 day(s).
| Time | Temp. | Humidity | Pressure | Rain* | Wind** | Luminosity | Snow |
|---|---|---|---|---|---|---|---|
| 1787442909 | 32.78° C | 45% | 1018.6 hPa | 0 mm | - | 116 W/m² | - |
| 1787442605 | 32.78° C | 45% | 1018.6 hPa | 0 mm | - | 127 W/m² | - |
| 1787442301 | 33.33° C | 44% | 1018.6 hPa | 0 mm | - | 140 W/m² | - |
| 1787441995 | 33.33° C | 44% | 1018.6 hPa | 0 mm | - | 156 W/m² | - |
| 1787441691 | 33.33° C | 44% | 1018.7 hPa | 0 mm | - | 171 W/m² | - |
| 1787441386 | 33.33° C | 44% | 1018.6 hPa | 0 mm | - | 187 W/m² | - |
| 1787441082 | 33.33° C | 44% | 1018.6 hPa | 0 mm | - | 202 W/m² | - |
| 1787440778 | 33.89° C | 43% | 1018.7 hPa | 0 mm | - | 218 W/m² | - |
| 1787440477 | 33.89° C | 42% | 1018.6 hPa | 0 mm | - | 235 W/m² | - |
| 1787440174 | 33.89° C | 43% | 1018.6 hPa | 0 mm | - | 255 W/m² | - |
| 1787439870 | 33.33° C | 44% | 1018.5 hPa | 0 mm | - | 271 W/m² | - |
| 1787439565 | 33.33° C | 44% | 1019 hPa | 0 mm | - | 291 W/m² | - |
| 1787439261 | 33.89° C | 43% | 1018.7 hPa | 0 mm | - | 307 W/m² | - |
| 1787438957 | 33.89° C | 43% | 1019 hPa | 0 mm | - | 325 W/m² | - |
| 1787438657 | 33.89° C | 43% | 1018.9 hPa | 0 mm | - | 339 W/m² | - |
| 1787438356 | 33.89° C | 44% | 1019 hPa | 0 mm | - | 358 W/m² | - |
| 1787438056 | 33.33° C | 44% | 1019 hPa | 0 mm | - | 373 W/m² | - |
| 1787437752 | 33.33° C | 44% | 1019 hPa | 0 mm | - | 387 W/m² | - |
| 1787437449 | 32.78° C | 45% | 1019.1 hPa | 0 mm | - | 406 W/m² | - |
| 1787437144 | 33.33° C | 45% | 1019.1 hPa | 0 mm | - | 422 W/m² | - |
| 1787436840 | 33.33° C | 45% | 1019.1 hPa | 0 mm | - | 438 W/m² | - |
| 1787436537 | 33.89° C | 45% | 1019 hPa | 0 mm | - | 446 W/m² | - |
| 1787436236 | 33.33° C | 45% | 1019.1 hPa | 0 mm | - | 460 W/m² | - |
| 1787435936 | 33.89° C | 44% | 1019.1 hPa | 0 mm | - | 486 W/m² | - |
| 1787435633 | 33.89° C | 44% | 1019.2 hPa | 0 mm | - | 500 W/m² | - |
* Rain latest hour (hover to see other rain measurements)
** Current wind speed in m/s (hover to see current wind gust speed)